Location: Dodge City Co - Operative Exchange Grain Elevator Number 8
(38.1218°N, 99.7124°W)
Time: 07:26:13
(UTC+00:00)

COSMOS 2487 - Pass Details

Date: 03 March 2021
Orbit: 433 x 436 km, 74.7° (Epoch: 13 April)

Event Time Altitude Azimuth Distance (km) Brightness Sun altitude
Exits shadow 12:25:36 - 240° (WSW) 1,616 4.7 -9.0°
Reaches altitude 10° 12:25:52 10° 243° (WSW) 1,535 4.6 -9.0°
Maximum altitude 12:28:29 21° 294° (WNW) 1,038 3.7 -8.4°
Drops below altitude 10° 12:31:08 10° 346° (NNW) 1,546 5.0 -7.9°
Sets 12:33:34 0° 3° (N) 2,421 6.1 -7.4°
